Location: Great Falls
(47.5000°N, 111.3000°W)
Time: 06:04:51
(UTC-06:00)

ISS - Pass Details

Date: 24 April 2025
Orbit: 416 x 420 km, 51.6° (Epoch: 15 May)

Event Time Altitude Azimuth Distance (km) Brightness Sun altitude
Exits shadow 04:15:26 29° 151° (SSE) 793 -2.5 -18.4°
Maximum altitude 04:15:40 29° 143° (SE) 788 -2.5 -18.3°
Drops below altitude 10° 04:18:38 10° 80° (E) 1,495 -0.2 -18.0°
Sets 04:20:53 0° 69° (ENE) 2,363 1.3 -17.7°
